Location: Newark
(27.9675°N, 86.8869°E)
Time: 17:43:09
(UTC+00:00)

Vanguard 3 - Pass Details

Date: 31 October 2019
Orbit: 508 x 3263 km, 33.3° (Epoch: 14 November)

Event Time Altitude Azimuth Distance (km) Brightness Sun altitude
Rises 18:52:43 0° 289° (WNW) 2,906 - -71.0°
Reaches altitude 10° 18:55:11 10° 287° (WNW) 1,836 - -70.6°
Maximum altitude 18:59:04 71° 203° (SSW) 534 - -69.9°
Drops below altitude 10° 19:02:47 10° 118° (ESE) 1,762 - -69.3°
Sets 19:05:07 0° 116° (ESE) 2,773 - -68.9°
